Sedalia, MO

11:06 AM CST on February 10, 2016 (GMT -0600)
Sedalia Memorial

Weather History for KDMO - July, 2013

Change the Weather History Date:

Tuesday, July 23, 2013

  Actual Average Record
Temperature  
Mean Temperature 80 °F 79 °F  
Max Temperature 89 °F 90 °F - ()
Min Temperature 70 °F 69 °F - ()
Degree Days  
Heating Degree Days 0 0  
Month to date heating degree days 0 0  
Since 1 June heating degree days 9 6  
Since 1 July heating degree days 0 0  
Cooling Degree Days 15 14  
Month to date cooling degree days 317 319  
Year to date cooling degree days 772 762  
Since 1 June cooling degree days 624 623  
Growing Degree Days 30 (Base 50)    
Moisture  
Dew Point 70 °F    
Average Humidity 68    
Maximum Humidity 90    
Minimum Humidity 46    
Precipitation  
Precipitation 0.00 in 0.14 in - ()
Month to date precipitation 0.94 3.36  
Year to date precipitation 26.35 23.60  
Sea Level Pressure  
Sea Level Pressure 29.85 in    
Wind  
Wind Speed 8 mph (North)    
Max Wind Speed 16 mph    
Max Gust Speed 22 mph    
Visibility 10 miles    
Events      
T = Trace of Precipitation, MM = Missing Value Source: NWS Daily Summary

Daily Weather History Graph

Daily Weather History Graph

Search for Another Location

Airport or City:

Trip Planner

Search our weather history database for the weather conditions in past years. The results will help you decide how hot, cold, wet, or windy it might be!

Date:

Astronomy

Jul. 23, 2013 Rise Set
Actual Time 6:06 AM CDT 8:31 PM CDT
Civil Twilight 5:36 AM CDT 9:01 PM CDT
Nautical Twilight 4:58 AM CDT 9:38 PM CDT
Astronomical Twilight 4:17 AM CDT 10:20 PM CDT
Moon 9:01 PM CDT (7/23) 7:14 AM CDT (7/23)
Length of Visible Light 15h 25m
Length of Day
14h 24m
Full, 99% of the Moon is Illuminated
Jul 23
Full
Jul 29
Last Quarter
Aug 6
New
Aug 14
First Quarter
Aug 20
Full

Hourly Weather History & Observations

Time (CDT) Temp. Heat Index Dew Point Humidity Pressure Visibility Wind Dir Wind Speed Gust Speed Precip Events Conditions
12:53 AM 78.1 °F - 68.0 °F 71% 29.84 in 10.0 mi SW 6.9 mph - N/A   Clear
1:53 AM 78.1 °F - 69.1 °F 74% 29.86 in 10.0 mi SW 6.9 mph - N/A   Clear
2:53 AM 80.1 °F 82.9 °F 69.1 °F 69% 29.84 in 10.0 mi WSW 3.5 mph 19.6 mph N/A   Scattered Clouds
3:53 AM 73.9 °F - 69.1 °F 85% 29.81 in 10.0 mi Calm Calm - N/A   Clear
4:53 AM 75.0 °F - 69.1 °F 82% 29.78 in 10.0 mi SSW 12.7 mph - N/A   Clear
5:53 AM 72.0 °F - 68.0 °F 87% 29.80 in 10.0 mi South 6.9 mph - N/A   Clear
6:53 AM 73.9 °F - 69.1 °F 85% 29.83 in 10.0 mi South 4.6 mph - N/A   Clear
7:53 AM 77.0 °F - 71.1 °F 82% 29.83 in 10.0 mi SSW 6.9 mph - N/A   Clear
8:53 AM 82.0 °F 87.4 °F 73.0 °F 74% 29.84 in 10.0 mi West 8.1 mph - N/A   Clear
9:53 AM 84.9 °F 93.3 °F 75.0 °F 72% 29.87 in 10.0 mi WNW 9.2 mph - N/A   Clear
10:53 AM 87.1 °F 97.3 °F 75.9 °F 69% 29.88 in 10.0 mi North 9.2 mph - N/A   Clear
11:53 AM 86.0 °F 95.1 °F 75.0 °F 70% 29.87 in 10.0 mi North 5.8 mph - N/A   Clear
12:53 PM 87.1 °F 94.5 °F 73.0 °F 63% 29.89 in 10.0 mi NNW 9.2 mph - N/A   Scattered Clouds
1:53 PM 87.1 °F 92.8 °F 71.1 °F 59% 29.87 in 10.0 mi NNE 11.5 mph - N/A   Clear
2:53 PM 87.1 °F 93.6 °F 72.0 °F 61% 29.87 in 10.0 mi North 8.1 mph - N/A   Clear
3:53 PM 87.1 °F 92.8 °F 71.1 °F 59% 29.85 in 10.0 mi NE 13.8 mph 20.7 mph N/A   Clear
4:53 PM 87.1 °F 92.0 °F 70.0 °F 57% 29.83 in 10.0 mi NNE 11.5 mph 16.1 mph N/A   Clear
5:53 PM 87.1 °F 88.9 °F 64.9 °F 48% 29.83 in 10.0 mi Variable 3.5 mph - N/A   Clear
6:53 PM 84.9 °F 88.8 °F 69.1 °F 59% 29.84 in 10.0 mi NE 8.1 mph - N/A   Clear
7:53 PM 82.0 °F 84.9 °F 68.0 °F 62% 29.87 in 10.0 mi NE 8.1 mph - N/A   Clear
8:53 PM 79.0 °F - 66.9 °F 66% 29.88 in 10.0 mi NNE 6.9 mph - N/A   Clear
9:53 PM 75.0 °F - 68.0 °F 79% 29.89 in 10.0 mi NE 6.9 mph - N/A   Clear
10:53 PM 73.9 °F - 64.0 °F 71% 29.90 in 10.0 mi NE 9.2 mph - N/A   Clear
11:53 PM 72.0 °F - 64.0 °F 76% 29.92 in 10.0 mi NE 5.8 mph - N/A   Clear